Regional Weather Roundup
Issued by NWS Goodland, KS

Home | Current Version | Previous Version | Graphics & Text | Print | Product List | Glossary On
Versions: 1 2 3 4 5 6 7 8 9 10 11 12 13 14 15 16 17 18 19 20 21 22 23 24 25 26 27 28 29 30 31 32 33 34 35 36 37 38 39 40 41 42 43 44 45 46 47 48 49 50
000
ASUS43 KGLD 232008
RWRGLD

GOODLAND FORECAST AREA HOURLY WEATHER ROUNDUP
NATIONAL WEATHER SERVICE GOODLAND KS
200 PM MDT WED APR 23 2014

...OFFICIAL OBSERVATIONS...

CITY           SKY/WX    TMP DP  RH WIND       PRES   REMARKS
GOODLAND KS    PTSUNNY   84  27  12 SW9G22    29.55F
HILL CITY KS   CLOUDY    85  48  27 SW20G38   29.53F
IMPERIAL NEB   MOSUNNY   79  37  22 N17G29    29.57S
MCCOOK NEB     CLOUDY    76  44  32 NW14      29.56R
AKRON CO       SUNNY     71  35  26 N18       29.62F
BURLINGTON CO  MOSUNNY   81  22  11 W13G18    29.58S
LIMON CO       PTSUNNY   74  20  13 VRB6      29.60F
$$

...UNOFFICIAL OBSERVATIONS...

CITY           SKY/WX    TMP DP  RH WIND       PRES   REMARKS
COLBY KS       SUNNY     82  43  24 SW16      29.56F
LENORA KS        N/A     83  32  16 S23         N/A
LEOTI KS         N/A     82  32  16 S12         N/A
NORTON KS      SUNNY     77  45  31 S20G26    29.52F
OBERLIN KS     FAIR      81  45  28 NW14G21   29.53F
SHARON SPRINGS   N/A     85  31  14 SW22G29     N/A
ST FRANCIS KS  MOSUNNY   79  32  18 NE15G21   29.56F
WAKEENEY KS      N/A     85  46  25 MISG        N/A
TRENTON NEB      N/A     75  32  20 N15         N/A
KIT CARSON CO    N/A     82  28  14 MISG        N/A
WRAY CO        FAIR      77  34  20 NE16G23   29.59S
$$



USA.gov is the U.S. government's official web portal to all federal, state and local government web resources and services.